User: anonymous   Login
Location: Fontevrault
(47.1823°N, 0.0493°E)
Time: 11:03:35
(UTC+00:00)
Language:

Cosmos 2219 Rocket - Orbit

View from above orbital plane
View from above orbital plane
View from above satellite
View from above satellite

Ground track
Ground track

The orbit data is extracted from the following two-line orbital elements,

1 22220U 92076B   21270.73673971 -.00000239  00000-0 -95948-4 0  9992
2 22220  71.0033   7.9143 0011191  41.8794 111.7680 14.16475870491847
Epoch (UTC): 27 September 2021 17:40:54
Eccentricity: 0.0011191
inclination: 71.0033°
perigee height: 829 km
apogee height: 845 km
right ascension of ascending node: 7.9143°
argument of perigee: 41.8794°
revolutions per day: 14.16475870
mean anomaly at epoch: 111.7680°
orbit number at epoch: 49184

The dashed part of the orbit path shows where the satellite is in the earth's shadow,  

DLR